Abingdon, VA

2:09 PM EDT on May 28, 2017 (GMT -0400)
Virginia Highlands

Weather History for KVJI - March, 2013

Change the Weather History Date:

Tuesday, March 26, 2013

  Actual Average (KTRI) Record (KTRI)
Temperature  
Mean Temperature 34 °F -  
Max Temperature 37 °F 58 °F 82 °F (1944)
Min Temperature 30 °F 34 °F 11 °F (1940)
Degree Days  
Heating Degree Days 32    
Moisture  
Dew Point 30 °F    
Average Humidity 89    
Maximum Humidity 98    
Minimum Humidity 72    
Precipitation  
Precipitation 0.02 in - - ()
Sea Level Pressure  
Sea Level Pressure 30.01 in    
Wind  
Wind Speed 8 mph (WNW)    
Max Wind Speed 13 mph    
Max Gust Speed 18 mph    
Visibility 7 miles    
Events Snow    
Averages and records for this station are not official NWS values.
T = Trace of Precipitation, MM = Missing Value Source: NWS Daily Summary

Daily Weather History Graph

Daily Weather History Graph

Search for Another Location

Airport or City:

Trip Planner

Search our weather history database for the weather conditions in past years. The results will help you decide how hot, cold, wet, or windy it might be!

Date:

Astronomy

Mar. 26, 2013 Rise Set
Actual Time 7:22 AM EDT 7:45 PM EDT
Civil Twilight 6:56 AM EDT 8:11 PM EDT
Nautical Twilight 6:26 AM EDT 8:41 PM EDT
Astronomical Twilight 5:55 AM EDT 9:12 PM EDT
Moon 7:20 PM EDT (3/26) 6:37 AM EDT (3/26)
Length of Visible Light 13h 14m
Length of Day
12h 22m
Waxing Gibbous, 99% of the Moon is Illuminated
Mar 26
Waxing Gibbous
Mar 27
Full
Apr 3
Last Quarter
Apr 10
New
Apr 18
First Quarter

Hourly Weather History & Observations

Time (EDT) Temp. Windchill Dew Point Humidity Pressure Visibility Wind Dir Wind Speed Gust Speed Precip Events Conditions
12:15 AM 31.8 °F 24.6 °F 29.3 °F 90% 29.87 in 10.0 mi West 8.1 mph - N/A Snow Light Snow
12:35 AM 31.8 °F 23.3 °F 29.8 °F 92% 29.88 in 5.0 mi West 10.4 mph - N/A Snow Light Snow
12:55 AM 31.8 °F 23.3 °F 29.3 °F 90% 29.88 in 10.0 mi West 10.4 mph - N/A Snow Light Snow
1:15 AM 31.6 °F 22.6 °F 29.1 °F 90% 29.88 in 10.0 mi West 11.5 mph - N/A Snow Light Snow
1:35 AM 31.8 °F 24.6 °F 28.9 °F 89% 29.88 in 10.0 mi WNW 8.1 mph - N/A Snow Light Snow
1:55 AM 31.8 °F 23.9 °F 28.4 °F 87% 29.89 in 10.0 mi West 9.2 mph 16.1 mph N/A Snow Light Snow
2:15 AM 31.6 °F 24.4 °F 28.4 °F 88% 29.89 in 10.0 mi WNW 8.1 mph - N/A Snow Light Snow
2:35 AM 31.5 °F 24.2 °F 29.3 °F 92% 29.89 in 5.0 mi WNW 8.1 mph - N/A Snow Light Snow
2:55 AM 31.1 °F 23.7 °F 29.8 °F 95% 29.89 in 5.0 mi West 8.1 mph - N/A Snow Light Snow
3:15 AM 31.1 °F 23.7 °F 30.0 °F 96% 29.89 in 5.0 mi West 8.1 mph - N/A Snow Light Snow
3:35 AM 31.1 °F 23.7 °F 29.7 °F 94% 29.89 in 5.0 mi West 8.1 mph - N/A Snow Light Snow
3:55 AM 31.1 °F 23.1 °F 29.5 °F 94% 29.89 in 7.0 mi WNW 9.2 mph - N/A Snow Light Snow
4:15 AM 31.1 °F 24.5 °F 29.5 °F 94% 29.89 in 4.0 mi West 6.9 mph - N/A Snow Light Snow
4:35 AM 30.9 °F 24.3 °F 29.7 °F 95% 29.89 in 5.0 mi West 6.9 mph - N/A Snow Light Snow
4:55 AM 30.9 °F 24.3 °F 29.8 °F 96% 29.90 in 5.0 mi West 6.9 mph - N/A Snow Light Snow
5:15 AM 31.1 °F 23.7 °F 29.8 °F 95% 29.90 in 5.0 mi West 8.1 mph - N/A Snow Light Snow
5:35 AM 30.9 °F 22.8 °F 29.8 °F 96% 29.90 in 5.0 mi West 9.2 mph - N/A Snow Light Snow
5:55 AM 30.9 °F 24.3 °F 29.8 °F 96% 29.90 in 7.0 mi West 6.9 mph - N/A Snow Light Snow
6:15 AM 30.9 °F 26.2 °F 30.0 °F 96% 29.91 in 4.0 mi West 4.6 mph - N/A Snow Light Snow
6:35 AM 30.9 °F 26.2 °F 30.2 °F 97% 29.91 in 5.0 mi West 4.6 mph - N/A Snow Light Snow
6:55 AM 30.9 °F 26.2 °F 30.2 °F 97% 29.91 in 7.0 mi WNW 4.6 mph - N/A Snow Light Snow
7:15 AM 30.9 °F 25.2 °F 30.0 °F 96% 29.92 in 10.0 mi West 5.8 mph - N/A Snow Light Snow
7:35 AM 31.1 °F 25.4 °F 29.8 °F 95% 29.92 in 10.0 mi West 5.8 mph - N/A Snow Light Snow
7:55 AM 31.1 °F 25.4 °F 29.8 °F 95% 29.93 in 7.0 mi West 5.8 mph - N/A Snow Light Snow
8:15 AM 31.3 °F 24.7 °F 29.8 °F 94% 29.93 in 7.0 mi WNW 6.9 mph - N/A Snow Light Snow
8:35 AM 31.5 °F 26.8 °F 29.8 °F 94% 29.94 in 4.0 mi West 4.6 mph - N/A Snow Light Snow
8:55 AM 31.1 °F 26.4 °F 30.6 °F 98% 29.95 in 3.0 mi West 4.6 mph - N/A Snow Light Snow
9:15 AM 31.5 °F 24.9 °F 30.6 °F 96% 29.96 in 2.5 mi West 6.9 mph - N/A Snow Light Snow
9:35 AM 31.5 °F 24.2 °F 30.4 °F 96% 29.97 in 2.5 mi WNW 8.1 mph - N/A Snow Light Snow
9:55 AM 31.8 °F 26.2 °F 30.7 °F 96% 29.98 in 3.0 mi West 5.8 mph - N/A Snow Light Snow
10:15 AM 32.0 °F 26.4 °F 30.6 °F 94% 29.99 in 3.0 mi West 5.8 mph - 0.01 in Snow Light Snow
10:35 AM 32.0 °F 27.5 °F 30.6 °F 94% 29.99 in 5.0 mi WNW 4.6 mph - 0.01 in Snow Light Snow
10:55 AM 32.0 °F 27.5 °F 30.6 °F 94% 30.00 in 4.0 mi WNW 4.6 mph - 0.01 in Snow Light Snow
11:15 AM 32.4 °F 26.0 °F 30.9 °F 94% 30.01 in 4.0 mi WNW 6.9 mph - N/A Snow Light Snow
11:35 AM 32.5 °F 27.1 °F 30.9 °F 94% 30.01 in 5.0 mi WNW 5.8 mph - N/A Snow Light Snow
11:55 AM 32.9 °F 27.5 °F 30.7 °F 92% 30.02 in 2.5 mi WNW 5.8 mph - N/A Snow Light Snow
12:15 PM 33.4 °F 27.3 °F 31.3 °F 92% 30.02 in 2.5 mi West 6.9 mph - N/A Snow Light Snow
12:35 PM 32.9 °F 27.5 °F 31.1 °F 93% 30.03 in 4.0 mi West 5.8 mph - 0.01 in Snow Light Snow
12:55 PM 33.1 °F 26.9 °F 31.1 °F 92% 30.03 in 4.0 mi WNW 6.9 mph - 0.01 in Snow Light Snow
1:15 PM 33.8 °F 27.7 °F 30.7 °F 89% 30.03 in 4.0 mi WNW 6.9 mph - N/A Snow Light Snow
1:35 PM 34.0 °F 27.2 °F 30.7 °F 88% 30.03 in 3.0 mi NNW 8.1 mph - N/A Snow Light Snow
1:55 PM 34.7 °F 26.4 °F 30.4 °F 84% 30.04 in 5.0 mi NW 11.5 mph 17.3 mph N/A Snow Light Snow
2:15 PM 35.4 °F 26.8 °F 30.0 °F 81% 30.03 in 7.0 mi NW 12.7 mph 17.3 mph N/A Snow Light Snow
2:35 PM 35.6 °F 28.0 °F 30.0 °F 80% 30.03 in 7.0 mi NW 10.4 mph 17.3 mph N/A Snow Light Snow
2:55 PM 36.9 °F 29.6 °F 30.7 °F 79% 30.03 in 10.0 mi North 10.4 mph - N/A Snow Light Snow
3:15 PM 35.8 °F 30.1 °F 30.6 °F 81% 30.04 in 7.0 mi NNW 6.9 mph - N/A Snow Light Snow
3:35 PM 36.5 °F 30.3 °F 29.3 °F 75% 30.04 in 10.0 mi North 8.1 mph - N/A   Overcast
3:55 PM 37.0 °F 29.8 °F 28.8 °F 72% 30.04 in 10.0 mi NNW 10.4 mph 17.3 mph N/A   Overcast
4:15 PM 36.7 °F 28.9 °F 28.4 °F 72% 30.04 in 7.0 mi NNW 11.5 mph 18.4 mph N/A Snow Light Snow
4:35 PM 36.0 °F 30.3 °F 28.9 °F 76% 30.05 in 7.0 mi NNW 6.9 mph - N/A Snow Light Snow
4:55 PM 36.1 °F 29.9 °F 28.2 °F 73% 30.06 in 10.0 mi NNW 8.1 mph 16.1 mph N/A   Overcast
5:15 PM 36.1 °F 29.9 °F 28.9 °F 75% 30.06 in 10.0 mi North 8.1 mph - N/A Snow Light Snow
5:35 PM 35.6 °F 29.2 °F 29.3 °F 78% 30.06 in 5.0 mi NNW 8.1 mph - N/A Snow Light Snow
5:55 PM 35.6 °F 27.1 °F 29.1 °F 77% 30.07 in 10.0 mi NW 12.7 mph 18.4 mph N/A   Overcast
6:15 PM 35.6 °F 27.1 °F 27.7 °F 73% 30.08 in 10.0 mi NNW 12.7 mph - N/A   Overcast
6:35 PM 35.1 °F 26.9 °F 29.5 °F 80% 30.09 in 10.0 mi NW 11.5 mph 17.3 mph N/A   Overcast
6:55 PM 35.2 °F 29.5 °F 29.3 °F 79% 30.09 in 10.0 mi WNW 6.9 mph - N/A   Overcast
7:15 PM 34.9 °F 28.3 °F 29.1 °F 79% 30.10 in 10.0 mi WNW 8.1 mph - N/A   Overcast
7:35 PM 34.7 °F 28.8 °F 29.7 °F 82% 30.11 in 10.0 mi West 6.9 mph - N/A   Overcast
7:55 PM 34.3 °F 27.7 °F 30.2 °F 85% 30.11 in 10.0 mi WNW 8.1 mph - N/A   Overcast
8:15 PM 33.8 °F 27.0 °F 30.4 °F 87% 30.12 in 10.0 mi WNW 8.1 mph - N/A   Overcast
8:35 PM 33.4 °F 26.6 °F 31.1 °F 91% 30.12 in 10.0 mi West 8.1 mph - N/A Snow Light Snow
8:55 PM 33.3 °F 25.7 °F 31.1 °F 92% 30.13 in 10.0 mi WNW 9.2 mph - N/A Snow Light Snow
9:15 PM 33.4 °F 26.6 °F 30.7 °F 90% 30.14 in 10.0 mi West 8.1 mph - N/A Snow Light Snow
9:35 PM 33.4 °F 25.9 °F 31.1 °F 91% 30.15 in 7.0 mi WNW 9.2 mph - N/A Snow Light Snow
9:55 PM 33.3 °F 27.1 °F 31.1 °F 92% 30.16 in 7.0 mi WNW 6.9 mph - N/A Snow Light Snow
10:15 PM 33.3 °F 27.9 °F 30.9 °F 91% 30.16 in 10.0 mi WNW 5.8 mph - N/A Snow Light Snow
10:35 PM 33.3 °F 26.4 °F 30.6 °F 90% 30.16 in 10.0 mi WNW 8.1 mph - N/A   Overcast
10:55 PM 33.3 °F 27.9 °F 30.7 °F 90% 30.17 in 7.0 mi WNW 5.8 mph - N/A Snow Light Snow
11:15 PM 32.7 °F 27.3 °F 31.1 °F 94% 30.17 in 4.0 mi WNW 5.8 mph - N/A Snow Light Snow
11:35 PM 32.5 °F 26.2 °F 31.6 °F 96% 30.17 in 4.0 mi West 6.9 mph - N/A Snow Light Snow
11:55 PM 32.4 °F 29.1 °F 31.3 °F 96% 30.17 in 4.0 mi NW 3.5 mph - N/A Snow Light Snow